QPF
0.01 0.02 0.02 0.03 0.03 0.03 0.03 0.02 0.02 0.02 0.02 0.02 0.02 0.01 0.01 0.01 0.01 0.01 0.01 0.02 0.03 0.03 0.03 0.04 0.04 0.04 0.05 0.06 0.06 0.06 0.06 0.05 0.05 0.03 0.03 0.03 0.03 0.03 0.04 0.04 0.03 0.03 0.03
0.02 0.02 0.02 0.03 0.03 0.03 0.03 0.03 0.02 0.02 0.02 0.02 0.02 0.02 0.01 0.01 0.01 0.01 0.02 0.02 0.03 0.04 0.04 0.04 0.04 0.04 0.05 0.06 0.07 0.06 0.06 0.06 0.05 0.04 0.04 0.04 0.04 0.03 0.03 0.04 0.05 0.05 0.04
0.03 0.04 0.04 0.04 0.04 0.03 0.03 0.03 0.02 0.02 0.02 0.02 0.03 0.03 0.02 0.01 0.01 0.01 0.02 0.03 0.03 0.04 0.04 0.04 0.04 0.05 0.06 0.06 0.07 0.07 0.07 0.06 0.04 0.03 0.03 0.03 0.05 0.03 0.03 0.04 0.05 0.06 0.05
0.03 0.04 0.06 0.06 0.05 0.04 0.04 0.04 0.03 0.03 0.02 0.02 0.03 0.03 0.03 0.02 0.02 0.02 0.03 0.03 0.04 0.04 0.04 0.04 0.04 0.04 0.05 0.05 0.07 0.08 0.08 0.07 0.05 0.03 0.03 0.03 0.04 0.04 0.03 0.03 0.04 0.05 0.05
0.03 0.03 0.04 0.05 0.05 0.05 0.05 0.05 0.03 0.03 0.03 0.03 0.03 0.04 0.04 0.04 0.03 0.03 0.03 0.03 0.03 0.04 0.04 0.03 0.03 0.03 0.04 0.06 0.07 0.08 0.08 0.07 0.05 0.04 0.03 0.03 0.03 0.04 0.03 0.03 0.03 0.04 0.05
0.02 0.03 0.04 0.05 0.05 0.05 0.06 0.05 0.05 0.04 0.04 0.04 0.04 0.03 0.03 0.04 0.04 0.04 0.03 0.02 0.02 0.03 0.03 0.03 0.03 0.04 0.05 0.06 0.08 0.09 0.09 0.07 0.05 0.04 0.03 0.03 0.02 0.02 0.02 0.02 0.02 0.03 0.05
0.02 0.03 0.03 0.04 0.04 0.05 0.05 0.05 0.05 0.05 0.04 0.04 0.03 0.03 0.02 0.02 0.04 0.04 0.04 0.03 0.03 0.03 0.03 0.03 0.04 0.04 0.05 0.05 0.06 0.06 0.07 0.07 0.06 0.05 0.04 0.02 0.02 0.02 0.03 0.03 0.02 0.03 0.04
0.03 0.02 0.02 0.03 0.03 0.03 0.04 0.04 0.05 0.04 0.04 0.04 0.04 0.02 0.02 0.02 0.03 0.03 0.03 0.03 0.04 0.04 0.04 0.04 0.05 0.05 0.05 0.05 0.05 0.04 0.04 0.05 0.05 0.05 0.05 0.04 0.03 0.03 0.03 0.03 0.03 0.03 0.03
0.04 0.03 0.03 0.02 0.03 0.03 0.03 0.04 0.05 0.05 0.05 0.04 0.04 0.04 0.03 0.02 0.03 0.03 0.03 0.02 0.03 0.03 0.03 0.03 0.04 0.05 0.05 0.05 0.05 0.05 0.04 0.04 0.03 0.04 0.04 0.04 0.04 0.04 0.04 0.04 0.04 0.03 0.04
0.05 0.04 0.03 0.03 0.03 0.04 0.04 0.05 0.05 0.05 0.05 0.04 0.04 0.04 0.04 0.03 0.04 0.04 0.04 0.03 0.02 0.02 0.02 0.03 0.04 0.05 0.05 0.06 0.06 0.05 0.04 0.03 0.03 0.03 0.03 0.03 0.03 0.03 0.04 0.04 0.04 0.04 0.04
0.06 0.06 0.05 0.03 0.03 0.04 0.05 0.06 0.05 0.05 0.05 0.04 0.04 0.04 0.03 0.03 0.04 0.04 0.04 0.04 0.03 0.02 0.02 0.03 0.05 0.05 0.05 0.07 0.07 0.05 0.04 0.03 0.02 0.03 0.03 0.03 0.02 0.02 0.03 0.03 0.04 0.05 0.05
0.06 0.07 0.06 0.04 0.04 0.04 0.05 0.06 0.06 0.05 0.05 0.04 0.04 0.03 0.03 0.03 0.03 0.03 0.04 0.05 0.04 0.03 0.02 0.03 0.05 0.05 0.04 0.07 0.07 0.06 0.05 0.03 0.02 0.02 0.03 0.03 0.02 0.02 0.03 0.03 0.02 0.03 0.04
0.06 0.07 0.07 0.05 0.05 0.05 0.06 0.06 0.06 0.05 0.05 0.04 0.04 0.04 0.04 0.04 0.04 0.04 0.03 0.04 0.05 0.04 0.04 0.05 0.06 0.05 0.05 0.07 0.07 0.06 0.04 0.02 0.02 0.02 0.02 0.03 0.02 0.02 0.02 0.02 0.02 0.02 0.03
0.06 0.06 0.07 0.06 0.05 0.06 0.06 0.05 0.05 0.05 0.04 0.04 0.04 0.04 0.05 0.05 0.05 0.04 0.04 0.04 0.05 0.05 0.05 0.06 0.07 0.06 0.07 0.08 0.08 0.06 0.04 0.03 0.02 0.02 0.02 0.02 0.02 0.02 0.02 0.02 0.03 0.03 0.04
0.06 0.06 0.06 0.07 0.07 0.06 0.06 0.06 0.05 0.05 0.05 0.04 0.04 0.04 0.05 0.06 0.06 0.06 0.05 0.04 0.05 0.05 0.05 0.06 0.06 0.07 0.08 0.09 0.08 0.07 0.05 0.05 0.03 0.03 0.02 0.02 0.02 0.02 0.03 0.03 0.04 0.04 0.04
0.04 0.05 0.06 0.07 0.06 0.06 0.06 0.06 0.06 0.05 0.05 0.04 0.04 0.04 0.05 0.05 0.06 0.06 0.06 0.06 0.06 0.06 0.06 0.06 0.07 0.07 0.08 0.07 0.07 0.07 0.06 0.05 0.04 0.03 0.03 0.03 0.02 0.03 0.03 0.03 0.03 0.04 0.04
0.04 0.05 0.06 0.06 0.05 0.05 0.04 0.04 0.05 0.05 0.04 0.04 0.04 0.04 0.04 0.04 0.05 0.05 0.06 0.06 0.07 0.07 0.07 0.07 0.07 0.08 0.08 0.06 0.06 0.05 0.05 0.05 0.04 0.04 0.04 0.03 0.03 0.03 0.03 0.03 0.03 0.03 0.03
0.04 0.06 0.07 0.06 0.05 0.05 0.05 0.05 0.04 0.04 0.04 0.04 0.04 0.04 0.04 0.04 0.05 0.05 0.05 0.05 0.06 0.06 0.07 0.07 0.07 0.07 0.07 0.07 0.06 0.05 0.04 0.05 0.05 0.05 0.04 0.04 0.03 0.03 0.03 0.03 0.03 0.03 0.03
0.06 0.07 0.07 0.07 0.06 0.05 0.05 0.04 0.04 0.04 0.04 0.04 0.04 0.04 0.04 0.04 0.05 0.05 0.04 0.04 0.04 0.05 0.06 0.06 0.06 0.06 0.06 0.05 0.05 0.04 0.04 0.04 0.04 0.04 0.04 0.04 0.03 0.03 0.03 0.02 0.02 0.02 0.03
0.06 0.06 0.07 0.07 0.06 0.05 0.05 0.04 0.03 0.03 0.03 0.03 0.04 0.04 0.04 0.03 0.04 0.04 0.04 0.04 0.04 0.05 0.06 0.05 0.05 0.05 0.05 0.04 0.04 0.04 0.04 0.04 0.04 0.03 0.03 0.02 0.02 0.02 0.02 0.02 0.02 0.02 0.03
0.05 0.05 0.05 0.05 0.05 0.05 0.05 0.04 0.03 0.03 0.03 0.03 0.03 0.04 0.04 0.03 0.03 0.04 0.04 0.04 0.04 0.05 0.05 0.05 0.04 0.04 0.03 0.03 0.03 0.03 0.04 0.04 0.03 0.02 0.02 0.01 0.01 0.01 0.01 0.01 0.01 0.02 0.02
0.04 0.05 0.05 0.05 0.05 0.06 0.05 0.04 0.03 0.03 0.03 0.03 0.04 0.04 0.04 0.03 0.03 0.03 0.03 0.04 0.04 0.04 0.04 0.03 0.03 0.03 0.03 0.02 0.02 0.02 0.02 0.03 0.02 0.01 0.01 0.01 0.01 0.01 0.01 0.01 0.01 0.02 0.02
0.05 0.05 0.05 0.05 0.05 0.05 0.04 0.04 0.03 0.03 0.03 0.03 0.03 0.03 0.03 0.03 0.02 0.02 0.03 0.03 0.04 0.04 0.03 0.02 0.02 0.02 0.02 0.02 0.02 0.01 0.02 0.02 0.02 0.01 0.01 0.01 0.01 0.01 0.01 0.01 0.01 0.02 0.02
0.05 0.05 0.06 0.05 0.05 0.04 0.03 0.03 0.03 0.03 0.03 0.03 0.03 0.03 0.03 0.03 0.03 0.03 0.03 0.04 0.04 0.03 0.03 0.03 0.03 0.02 0.02 0.01 0.01 0.01 0.02 0.02 0.02 0.01 0.01 0.01 0.01 0.01 0.01 0.01 0.02 0.02 0.02
0.05 0.05 0.05 0.05 0.04 0.03 0.03 0.03 0.03 0.03 0.02 0.02 0.03 0.03 0.03 0.03 0.03 0.03 0.04 0.04 0.04 0.03 0.03 0.03 0.03 0.03 0.02 0.01 0.01 0.01 0.01 0.02 0.01 0.01 0.01 0.01 0.01 0.01 0.01 0.01 0.01 0.01 0.02
0.03 0.03 0.03 0.03 0.03 0.03 0.03 0.02 0.02 0.02 0.02 0.02 0.03 0.03 0.03 0.03 0.04 0.04 0.04 0.04 0.04 0.04 0.03 0.03 0.02 0.02 0.02 0.02 0.02 0.01 0.01 0.01 0.01 0.01 0.01 0.01 0.01 0.01 0.01 0.01 0.01 0.01 0.01
MSLP
1006.87 1007.22 1007.66 1008.10 1008.48 1008.72 1008.80 1008.71 1008.49 1008.15 1007.77 1007.40 1007.09 1006.90 1006.87 1007.01 1007.33 1007.82 1008.47 1009.23 1010.07 1010.94 1011.81 1012.66 1013.47 1014.26 1015.05 1015.86 1016.73 1017.68 1018.72 1019.83 1020.97 1022.11 1023.16 1024.08 1024.80 1025.32 1025.62 1025.73 1025.69 1025.55 1025.36
1005.74 1006.08 1006.53 1007.02 1007.46 1007.79 1007.96 1007.96 1007.81 1007.53 1007.20 1006.85 1006.57 1006.40 1006.39 1006.58 1006.95 1007.52 1008.24 1009.09 1010.00 1010.94 1011.87 1012.75 1013.58 1014.38 1015.15 1015.94 1016.79 1017.71 1018.72 1019.81 1020.94 1022.07 1023.13 1024.08 1024.85 1025.42 1025.79 1025.97 1026.01 1025.93 1025.80
1004.72 1005.03 1005.47 1005.96 1006.43 1006.81 1007.04 1007.11 1007.03 1006.82 1006.53 1006.24 1006.00 1005.88 1005.92 1006.16 1006.61 1007.25 1008.06 1009.00 1010.00 1011.03 1012.03 1012.98 1013.86 1014.67 1015.45 1016.23 1017.04 1017.91 1018.87 1019.89 1020.97 1022.05 1023.09 1024.03 1024.82 1025.43 1025.87 1026.13 1026.25 1026.26 1026.21
1003.80 1004.08 1004.49 1004.97 1005.43 1005.82 1006.09 1006.20 1006.18 1006.03 1005.82 1005.59 1005.42 1005.37 1005.48 1005.80 1006.33 1007.05 1007.95 1008.98 1010.08 1011.20 1012.28 1013.29 1014.23 1015.08 1015.87 1016.63 1017.40 1018.22 1019.10 1020.04 1021.03 1022.04 1023.02 1023.92 1024.71 1025.36 1025.85 1026.20 1026.41 1026.53 1026.57
1003.00 1003.25 1003.63 1004.06 1004.49 1004.87 1005.13 1005.28 1005.30 1005.23 1005.09 1004.96 1004.88 1004.93 1005.13 1005.54 1006.15 1006.97 1007.95 1009.06 1010.24 1011.43 1012.57 1013.65 1014.62 1015.50 1016.31 1017.06 1017.80 1018.56 1019.36 1020.21 1021.11 1022.03 1022.94 1023.80 1024.57 1025.24 1025.78 1026.21 1026.52 1026.74 1026.89
1002.27 1002.52 1002.86 1003.25 1003.63 1003.96 1004.22 1004.37 1004.44 1004.43 1004.39 1004.37 1004.41 1004.57 1004.90 1005.41 1006.12 1007.01 1008.06 1009.23 1010.46 1011.69 1012.88 1013.99 1015.00 1015.90 1016.71 1017.45 1018.17 1018.88 1019.62 1020.40 1021.21 1022.05 1022.89 1023.70 1024.46 1025.14 1025.73 1026.22 1026.62 1026.94 1027.17
1001.59 1001.84 1002.16 1002.50 1002.83 1003.12 1003.35 1003.52 1003.62 1003.69 1003.76 1003.86 1004.04 1004.34 1004.79 1005.42 1006.22 1007.19 1008.29 1009.49 1010.74 1011.99 1013.19 1014.31 1015.32 1016.24 1017.06 1017.80 1018.50 1019.19 1019.90 1020.62 1021.38 1022.16 1022.95 1023.72 1024.45 1025.14 1025.75 1026.29 1026.76 1027.15 1027.46
1000.91 1001.19 1001.49 1001.80 1002.08 1002.33 1002.55 1002.72 1002.87 1003.03 1003.21 1003.45 1003.78 1004.23 1004.82 1005.57 1006.46 1007.49 1008.63 1009.84 1011.09 1012.32 1013.50 1014.61 1015.62 1016.54 1017.37 1018.13 1018.84 1019.53 1020.23 1020.94 1021.67 1022.42 1023.17 1023.91 1024.62 1025.30 1025.92 1026.48 1026.98 1027.41 1027.76
1000.23 1000.54 1000.85 1001.13 1001.39 1001.61 1001.82 1002.01 1002.22 1002.46 1002.77 1003.15 1003.64 1004.25 1004.98 1005.84 1006.83 1007.91 1009.07 1010.28 1011.51 1012.70 1013.86 1014.94 1015.93 1016.85 1017.70 1018.48 1019.23 1019.95 1020.67 1021.40 1022.13 1022.87 1023.60 1024.31 1024.99 1025.64 1026.25 1026.80 1027.29 1027.72 1028.08
999.55 999.90 1000.22 1000.50 1000.75 1000.97 1001.19 1001.42 1001.69 1002.03 1002.46 1002.98 1003.62 1004.38 1005.25 1006.23 1007.29 1008.43 1009.61 1010.81 1012.01 1013.17 1014.28 1015.33 1016.32 1017.24 1018.11 1018.93 1019.72 1020.49 1021.26 1022.01 1022.76 1023.50 1024.21 1024.90 1025.54 1026.15 1026.70 1027.21 1027.66 1028.06 1028.40
998.91 999.30 999.64 999.94 1000.21 1000.45 1000.69 1000.98 1001.33 1001.76 1002.31 1002.97 1003.75 1004.64 1005.63 1006.71 1007.85 1009.03 1010.23 1011.42 1012.59 1013.72 1014.80 1015.83 1016.81 1017.74 1018.63 1019.49 1020.33 1021.16 1021.97 1022.76 1023.53 1024.27 1024.96 1025.61 1026.20 1026.73 1027.22 1027.66 1028.05 1028.39 1028.68
998.38 998.79 999.17 999.50 999.80 1000.08 1000.38 1000.73 1001.16 1001.69 1002.35 1003.13 1004.02 1005.03 1006.13 1007.29 1008.49 1009.71 1010.92 1012.11 1013.26 1014.37 1015.43 1016.44 1017.41 1018.35 1019.26 1020.16 1021.04 1021.91 1022.76 1023.57 1024.35 1025.08 1025.74 1026.33 1026.86 1027.32 1027.73 1028.08 1028.39 1028.67 1028.91
998.02 998.46 998.86 999.23 999.58 999.92 1000.29 1000.72 1001.23 1001.86 1002.61 1003.49 1004.48 1005.57 1006.74 1007.96 1009.21 1010.45 1011.68 1012.86 1014.00 1015.09 1016.13 1017.13 1018.10 1019.04 1019.97 1020.88 1021.78 1022.67 1023.53 1024.35 1025.12 1025.82 1026.44 1026.98 1027.44 1027.82 1028.15 1028.42 1028.66 1028.88 1029.07
997.90 998.35 998.78 999.20 999.60 1000.02 1000.46 1000.98 1001.58 1002.29 1003.12 1004.07 1005.13 1006.27 1007.48 1008.73 1010.00 1011.26 1012.48 1013.66 1014.79 1015.87 1016.89 1017.88 1018.83 1019.76 1020.68 1021.59 1022.49 1023.37 1024.21 1025.01 1025.75 1026.41 1026.99 1027.47 1027.87 1028.19 1028.45 1028.67 1028.85 1029.03 1029.19
998.07 998.52 998.98 999.44 999.91 1000.41 1000.94 1001.54 1002.22 1003.01 1003.89 1004.89 1005.98 1007.14 1008.36 1009.62 1010.88 1012.12 1013.33 1014.49 1015.60 1016.65 1017.66 1018.62 1019.54 1020.45 1021.34 1022.22 1023.08 1023.93 1024.73 1025.50 1026.19 1026.81 1027.35 1027.79 1028.15 1028.43 1028.66 1028.85 1029.01 1029.17 1029.32
998.57 999.01 999.48 999.99 1000.53 1001.10 1001.72 1002.40 1003.16 1004.00 1004.93 1005.94 1007.03 1008.19 1009.38 1010.61 1011.83 1013.04 1014.21 1015.33 1016.41 1017.42 1018.39 1019.31 1020.20 1021.06 1021.90 1022.72 1023.53 1024.32 1025.08 1025.79 1026.45 1027.03 1027.53 1027.95 1028.30 1028.58 1028.81 1029.01 1029.19 1029.36 1029.54
999.37 999.80 1000.29 1000.83 1001.43 1002.08 1002.77 1003.53 1004.35 1005.23 1006.18 1007.19 1008.26 1009.38 1010.53 1011.69 1012.85 1013.99 1015.11 1016.18 1017.20 1018.16 1019.07 1019.94 1020.77 1021.57 1022.35 1023.11 1023.85 1024.58 1025.28 1025.94 1026.56 1027.12 1027.62 1028.05 1028.41 1028.72 1028.99 1029.22 1029.45 1029.66 1029.87
1000.46 1000.86 1001.37 1001.94 1002.59 1003.30 1004.07 1004.88 1005.74 1006.66 1007.61 1008.60 1009.63 1010.69 1011.76 1012.84 1013.92 1014.98 1016.02 1017.01 1017.96 1018.86 1019.71 1020.51 1021.28 1022.01 1022.72 1023.41 1024.09 1024.75 1025.40 1026.03 1026.62 1027.18 1027.69 1028.15 1028.55 1028.91 1029.24 1029.54 1029.82 1030.08 1030.34
1001.78 1002.17 1002.67 1003.27 1003.96 1004.72 1005.53 1006.39 1007.28 1008.20 1009.15 1010.11 1011.08 1012.06 1013.05 1014.04 1015.03 1015.99 1016.93 1017.84 1018.71 1019.53 1020.31 1021.04 1021.73 1022.40 1023.04 1023.67 1024.29 1024.91 1025.52 1026.12 1026.71 1027.28 1027.81 1028.31 1028.77 1029.19 1029.59 1029.95 1030.29 1030.61 1030.91
1003.28 1003.64 1004.14 1004.76 1005.47 1006.25 1007.10 1007.98 1008.89 1009.80 1010.72 1011.64 1012.55 1013.45 1014.35 1015.25 1016.13 1017.00 1017.84 1018.66 1019.44 1020.19 1020.89 1021.55 1022.18 1022.78 1023.37 1023.95 1024.52 1025.10 1025.69 1026.28 1026.87 1027.45 1028.02 1028.56 1029.07 1029.55 1030.00 1030.42 1030.81 1031.16 1031.49
1004.87 1005.23 1005.72 1006.33 1007.05 1007.85 1008.70 1009.58 1010.48 1011.38 1012.26 1013.13 1013.97 1014.80 1015.61 1016.42 1017.20 1017.98 1018.73 1019.46 1020.17 1020.83 1021.47 1022.07 1022.64 1023.19 1023.73 1024.26 1024.81 1025.36 1025.93 1026.52 1027.11 1027.71 1028.30 1028.87 1029.42 1029.94 1030.42 1030.88 1031.29 1031.67 1032.01
1006.51 1006.85 1007.32 1007.93 1008.63 1009.42 1010.26 1011.13 1012.00 1012.86 1013.70 1014.51 1015.30 1016.06 1016.79 1017.51 1018.22 1018.91 1019.58 1020.24 1020.87 1021.47 1022.05 1022.60 1023.12 1023.63 1024.13 1024.63 1025.15 1025.69 1026.24 1026.82 1027.41 1028.01 1028.61 1029.19 1029.76 1030.29 1030.79 1031.25 1031.67 1032.05 1032.40
1008.12 1008.44 1008.90 1009.48 1010.17 1010.93 1011.73 1012.56 1013.39 1014.21 1015.00 1015.76 1016.49 1017.18 1017.86 1018.51 1019.15 1019.78 1020.39 1020.98 1021.56 1022.11 1022.63 1023.13 1023.62 1024.09 1024.56 1025.04 1025.53 1026.04 1026.58 1027.14 1027.72 1028.31 1028.90 1029.47 1030.03 1030.56 1031.04 1031.49 1031.90 1032.27 1032.60
1009.66 1009.97 1010.41 1010.96 1011.60 1012.32 1013.08 1013.86 1014.64 1015.40 1016.14 1016.85 1017.53 1018.17 1018.80 1019.41 1020.00 1020.58 1021.15 1021.69 1022.22 1022.73 1023.21 1023.68 1024.12 1024.56 1025.00 1025.45 1025.91 1026.39 1026.90 1027.44 1027.99 1028.56 1029.12 1029.67 1030.20 1030.70 1031.17 1031.59 1031.98 1032.33 1032.65
1011.11 1011.40 1011.81 1012.33 1012.92 1013.59 1014.29 1015.01 1015.73 1016.44 1017.13 1017.79 1018.43 1019.05 1019.64 1020.22 1020.78 1021.33 1021.86 1022.38 1022.87 1023.34 1023.79 1024.22 1024.63 1025.03 1025.43 1025.84 1026.27 1026.72 1027.20 1027.69 1028.21 1028.74 1029.27 1029.79 1030.29 1030.76 1031.20 1031.60 1031.97 1032.30 1032.60
1012.45 1012.73 1013.12 1013.59 1014.14 1014.74 1015.38 1016.04 1016.70 1017.36 1018.00 1018.63 1019.24 1019.83 1020.41 1020.97 1021.52 1022.05 1022.57 1023.05 1023.52 1023.96 1024.37 1024.76 1025.13 1025.49 1025.85 1026.22 1026.61 1027.01 1027.45 1027.91 1028.38 1028.88 1029.37 1029.86 1030.33 1030.77 1031.19 1031.57 1031.93 1032.25 1032.55
Thickness
5478 5478 5477 5477 5476 5476 5476 5477 5477 5477 5478 5480 5480 5481 5482 5483 5484 5484 5485 5486 5486 5487 5489 5490 5490 5491 5492 5492 5491 5491 5490 5490 5491 5493 5492 5492 5492 5491 5491 5491 5492 5494 5495
5472 5471 5470 5470 5469 5469 5469 5470 5470 5471 5472 5474 5474 5474 5475 5477 5477 5477 5478 5478 5479 5480 5481 5482 5483 5485 5485 5485 5485 5484 5484 5483 5484 5485 5484 5484 5484 5484 5484 5484 5486 5486 5487
5466 5465 5464 5463 5463 5462 5463 5464 5464 5465 5466 5467 5467 5467 5468 5470 5470 5470 5470 5471 5471 5472 5473 5474 5475 5476 5478 5478 5478 5477 5477 5477 5478 5478 5477 5476 5476 5476 5476 5476 5477 5478 5478
5459 5457 5457 5456 5455 5456 5456 5457 5458 5459 5460 5461 5460 5460 5461 5462 5462 5462 5462 5463 5463 5464 5465 5466 5467 5468 5470 5470 5471 5471 5470 5471 5471 5470 5469 5468 5468 5467 5466 5467 5467 5468 5469
5451 5450 5450 5449 5449 5449 5449 5451 5452 5453 5454 5454 5454 5453 5453 5454 5455 5455 5455 5455 5455 5456 5457 5457 5459 5461 5462 5463 5464 5463 5463 5464 5464 5463 5462 5461 5460 5459 5457 5457 5457 5459 5461
5444 5443 5442 5442 5441 5442 5442 5443 5444 5446 5446 5446 5446 5446 5446 5447 5448 5448 5448 5447 5447 5448 5448 5449 5450 5452 5453 5454 5455 5455 5455 5455 5455 5455 5454 5454 5453 5451 5449 5449 5448 5450 5452
5438 5436 5435 5435 5434 5435 5435 5436 5437 5438 5438 5439 5439 5438 5438 5439 5440 5441 5440 5438 5438 5438 5438 5439 5441 5444 5444 5444 5445 5446 5445 5446 5447 5447 5446 5446 5445 5445 5443 5441 5440 5441 5440
5431 5430 5429 5428 5428 5428 5428 5428 5428 5429 5430 5431 5431 5431 5431 5431 5432 5432 5432 5430 5429 5429 5429 5430 5432 5434 5436 5436 5436 5435 5435 5436 5437 5438 5439 5439 5438 5436 5435 5434 5432 5432 5432
5425 5424 5423 5422 5422 5421 5421 5420 5421 5421 5422 5422 5423 5423 5422 5423 5424 5425 5424 5421 5421 5420 5421 5422 5423 5426 5428 5429 5428 5427 5426 5427 5427 5428 5429 5428 5428 5427 5427 5425 5424 5424 5424
5421 5419 5418 5416 5416 5415 5414 5414 5414 5414 5414 5414 5415 5414 5414 5414 5416 5416 5415 5413 5413 5413 5413 5413 5416 5418 5420 5420 5420 5419 5418 5418 5419 5419 5418 5418 5417 5417 5417 5417 5417 5417 5415
5415 5413 5412 5411 5410 5409 5408 5408 5407 5406 5405 5405 5406 5406 5405 5406 5407 5408 5407 5406 5406 5405 5405 5405 5407 5410 5411 5412 5411 5411 5412 5411 5410 5409 5408 5407 5408 5408 5408 5408 5408 5408 5408
5410 5408 5407 5405 5404 5404 5402 5401 5399 5398 5397 5397 5398 5397 5397 5397 5397 5398 5399 5399 5398 5398 5398 5398 5400 5401 5402 5402 5402 5403 5403 5402 5401 5400 5399 5399 5399 5400 5400 5400 5400 5400 5400
5404 5403 5401 5400 5398 5398 5396 5394 5392 5391 5391 5391 5391 5390 5390 5389 5389 5390 5390 5390 5391 5390 5390 5391 5392 5393 5392 5392 5393 5393 5393 5393 5392 5392 5392 5391 5391 5391 5392 5392 5393 5394 5395
5397 5396 5395 5394 5393 5391 5390 5389 5387 5386 5386 5386 5385 5384 5383 5382 5382 5382 5381 5381 5382 5382 5381 5382 5382 5383 5383 5383 5383 5383 5383 5384 5384 5384 5383 5383 5384 5384 5384 5385 5386 5387 5388
5391 5390 5389 5389 5387 5385 5383 5382 5382 5382 5381 5381 5379 5379 5377 5376 5376 5376 5375 5376 5375 5375 5374 5373 5373 5373 5373 5374 5374 5374 5374 5375 5375 5376 5376 5377 5377 5377 5377 5377 5378 5379 5379
5386 5385 5383 5382 5380 5379 5377 5377 5376 5375 5375 5375 5374 5373 5372 5371 5370 5370 5370 5370 5369 5369 5368 5367 5366 5365 5366 5367 5367 5367 5367 5367 5368 5369 5370 5370 5370 5370 5370 5371 5372 5372 5372
5381 5379 5378 5376 5375 5373 5372 5371 5370 5369 5369 5368 5368 5367 5366 5366 5365 5364 5364 5363 5363 5363 5361 5361 5360 5359 5359 5359 5360 5360 5360 5361 5362 5363 5363 5363 5363 5363 5364 5364 5365 5365 5365
5376 5375 5373 5371 5369 5368 5366 5365 5364 5363 5363 5361 5361 5361 5360 5360 5359 5358 5357 5357 5355 5354 5354 5353 5353 5352 5352 5352 5353 5353 5353 5354 5355 5356 5356 5356 5356 5357 5357 5358 5358 5359 5359
5372 5371 5369 5367 5365 5362 5361 5360 5359 5358 5356 5355 5354 5354 5353 5352 5352 5351 5351 5349 5348 5348 5347 5346 5346 5345 5345 5345 5345 5346 5346 5347 5348 5349 5349 5349 5349 5350 5351 5351 5352 5353 5353
5368 5367 5365 5363 5360 5358 5356 5354 5353 5352 5350 5349 5349 5348 5346 5345 5344 5343 5343 5342 5341 5341 5340 5339 5338 5338 5338 5338 5338 5338 5339 5340 5341 5342 5342 5342 5343 5344 5344 5345 5345 5346 5347
5363 5361 5360 5357 5354 5352 5350 5348 5347 5345 5344 5343 5342 5342 5342 5340 5339 5338 5337 5336 5335 5334 5334 5333 5332 5331 5331 5331 5332 5333 5333 5334 5334 5335 5336 5337 5337 5338 5338 5339 5339 5339 5340
5357 5355 5352 5350 5348 5346 5344 5342 5340 5339 5337 5336 5336 5335 5336 5335 5333 5332 5331 5330 5329 5328 5328 5327 5326 5326 5326 5327 5327 5327 5328 5328 5329 5330 5330 5331 5331 5332 5333 5333 5333 5334 5334
5351 5349 5347 5345 5342 5341 5338 5336 5335 5333 5331 5330 5330 5329 5329 5328 5327 5327 5326 5325 5324 5323 5323 5322 5322 5322 5322 5322 5322 5323 5323 5324 5324 5325 5326 5326 5326 5327 5327 5328 5328 5328 5329
5345 5343 5341 5339 5336 5334 5332 5330 5328 5327 5325 5324 5324 5324 5323 5322 5321 5321 5320 5319 5319 5318 5317 5317 5317 5317 5317 5317 5318 5318 5319 5319 5320 5320 5321 5322 5321 5322 5322 5322 5323 5323 5324
5339 5337 5335 5332 5330 5328 5326 5324 5322 5321 5320 5319 5318 5318 5317 5316 5316 5315 5314 5314 5313 5313 5312 5312 5312 5312 5313 5313 5313 5314 5314 5315 5315 5316 5317 5317 5316 5316 5316 5317 5317 5318 5318
5333 5331 5329 5326 5324 5322 5320 5318 5317 5315 5314 5314 5313 5312 5311 5311 5310 5310 5309 5308 5308 5307 5307 5307 5307 5307 5307 5308 5308 5309 5310 5310 5311 5312 5312 5311 5311 5311 5311 5312 5312 5312 5312